Weather reports worldwide

Advertisment
Leconfield, United Kingdom (3382): temperature & dewpoint: 13.02.2019 14:00:00 - 19.02.2019 14:00:00 (GMT)Leconfield, United Kingdom (3382): temperature -20cm & temperature -100cm: 13.02.2019 14:00:00 - 19.02.2019 14:00:00 (GMT)Leconfield, United Kingdom (3382): wind speed & gusts: 13.02.2019 14:00:00 - 19.02.2019 14:00:00 (GMT)Leconfield, United Kingdom (3382): wind direction: 13.02.2019 14:00:00 - 19.02.2019 14:00:00 (GMT)Leconfield, United Kingdom (3382): reduced air pressure: 13.02.2019 14:00:00 - 19.02.2019 14:00:00 (GMT)Leconfield, United Kingdom (3382): visibility: 13.02.2019 14:00:00 - 19.02.2019 14:00:00 (GMT)Leconfield, United Kingdom (3382): sunshine duration: 13.02.2019 14:00:00 - 19.02.2019 14:00:00 (GMT)Leconfield, United Kingdom (3382): precipitation: 13.02.2019 14:00:00 - 19.02.2019 14:00:00 (GMT)
Date & Time tt [°C] td [°C] tt -20cm [°C] tt -100cm [°C] ff [km/h] ff [kn] fx [km/h] fx [kn] dd ppp [hPa] vv [km] sd [min] rr [mm]
19.02.2019 14:00:00 - - - - - - - - - - - - -
19.02.2019 13:00:00 10,8 2,7 - - 24 13 - - WSW 1014,9 10 54 0,0
19.02.2019 12:00:00 9,8 2,8 - - 22 12 - - W 1014,9 24 30 0,0
19.02.2019 11:00:00 10,3 5,2 - - 18 10 - - WSW 1014,6 27 48 0,0
19.02.2019 10:00:00 8,4 4,9 - - 21 11 - - WSW 1014,3 24 60 0,0
19.02.2019 09:00:00 7,6 4,6 5,7 6,4 15 8 - - WSW 1013,8 10 60 0,0
19.02.2019 08:00:00 6,4 4,2 - - 13 7 - - WSW 1013,3 35 6 0,0
19.02.2019 07:00:00 6,4 4,2 - - 15 8 - - WSW 1012,7 27 0 0,0
19.02.2019 06:00:00 6,7 4,5 - - 16 9 - - WSW 1012,0 35 0 0,0
19.02.2019 05:00:00 7,5 5,1 - - 18 10 - - WSW 1011,6 30 0 0,0
19.02.2019 04:00:00 7,4 5,1 - - 16 9 - - WSW 1011,1 10 0 0,0
19.02.2019 03:00:00 7,0 5,3 - - 21 11 - - WSW 1011,0 10 0 0,0
19.02.2019 02:00:00 7,0 4,6 - - 18 10 - - WSW 1010,7 10 0 0,0
19.02.2019 01:00:00 6,6 3,8 - - 24 13 - - SW 1010,2 10 0 0,0
19.02.2019 00:00:00 6,4 3,5 - - 24 13 - - SW 1010,2 10 - 0,0
18.02.2019 23:00:00 6,3 3,3 - - 16 9 - - SW 1010,0 21 0 0,0
18.02.2019 22:00:00 6,3 3,0 - - 15 8 - - SW 1010,1 15 0 0,0
18.02.2019 21:00:00 7,3 2,9 - - 16 9 - - SSW 1010,0 10 0 0,0
18.02.2019 20:00:00 7,7 2,9 - - 22 12 - - SW 1009,5 10 0 0,0
18.02.2019 19:00:00 8,2 2,9 - - 21 11 - - SW 1009,3 26 0 0,0
18.02.2019 18:00:00 8,6 2,7 - - 28 15 - - SW 1008,6 35 0 0,0
18.02.2019 17:00:00 9,0 2,5 - - 24 13 - - SW 1008,7 35 6 0,0
18.02.2019 16:00:00 9,7 3,7 - - 24 13 - - SW 1008,5 10 0 0,0
18.02.2019 15:00:00 10,1 3,4 - - 24 13 - - SW 1008,8 10 0 0,0
18.02.2019 14:00:00 10,7 4,4 - - 28 15 - - SW 1009,0 10 0 0,0
18.02.2019 13:00:00 10,5 5,5 - - 28 15 48 26 SW 1009,5 10 0 0,0
18.02.2019 12:00:00 10,5 5,6 - - 34 18 57 31 SW 1009,8 25 54 0,0
18.02.2019 11:00:00 10,1 6,0 - - 29 16 - - SW 1010,1 14 60 0,0
18.02.2019 10:00:00 9,0 6,3 - - 26 14 - - SSW 1010,2 10 18 0,0
18.02.2019 09:00:00 7,6 5,9 5,7 6,2 21 11 - - SSW 1010,6 10 0 0,0
18.02.2019 08:00:00 7,3 5,6 - - 16 9 - - SSW 1010,7 10 0 0,0
18.02.2019 07:00:00 6,9 5,4 - - 13 7 - - S 1010,4 11 0 0,0
18.02.2019 06:00:00 7,5 5,5 - - 18 10 - - SSW 1010,5 13 0 0,0
18.02.2019 05:00:00 7,5 5,6 - - 16 9 - - SSW 1010,7 12 0 0,0
18.02.2019 04:00:00 7,1 5,5 - - 11 6 - - SSW 1011,0 11 0 0,0
18.02.2019 03:00:00 7,3 5,5 - - 15 8 - - S 1011,1 11 0 0,0
18.02.2019 02:00:00 7,8 5,5 - - 15 8 - - S 1011,5 13 0 0,0
18.02.2019 01:00:00 7,9 6,0 - - 15 8 - - S 1011,6 11 0 0,0
18.02.2019 00:00:00 8,1 6,2 - - 13 7 - - S 1011,7 10 - 0,0
17.02.2019 23:00:00 8,5 6,8 - - 11 6 - - S 1011,6 11 0 0,0
17.02.2019 22:00:00 9,2 7,2 - - 13 7 - - S 1011,5 14 0 0,0
17.02.2019 21:00:00 8,9 7,1 - - 11 6 - - S 1011,4 14 0 0,0
17.02.2019 20:00:00 9,3 6,7 - - 9 5 - - S 1011,2 15 0 0,0
17.02.2019 19:00:00 9,9 6,2 - - 5 3 - - S 1011,0 10 0 0,0
17.02.2019 18:00:00 10,4 7,3 - - 8 4 - - S 1010,3 17 0 0,0
17.02.2019 17:00:00 11,9 7,5 - - 13 7 - - SSW 1009,9 23 0 0,0
17.02.2019 16:00:00 12,3 7,3 - - 21 11 - - SW 1009,9 21 48 0,0
17.02.2019 15:00:00 13,3 7,5 - - 24 13 - - SSW 1009,9 10 36 0,0
17.02.2019 14:00:00 12,9 6,9 - - 16 9 - - SSW 1009,9 16 6 0,0
17.02.2019 13:00:00 11,5 5,8 - - 13 7 - - S 1010,3 13 0 0,0
17.02.2019 12:00:00 12,0 4,9 - - 11 6 - - S 1010,6 13 36 -
17.02.2019 11:00:00 11,0 4,7 - - 13 7 - - S 1011,2 13 60 -
17.02.2019 10:00:00 9,3 5,9 - - 16 9 - - SSE 1011,4 11 60 0,0
17.02.2019 09:00:00 7,5 6,3 5,0 6,2 15 8 - - SSE 1011,9 5 42 0,0
17.02.2019 08:00:00 7,1 6,5 - - 15 8 - - SSE 1012,5 4,4 0 0,0
17.02.2019 07:00:00 8,0 6,7 - - 9 5 - - S 1013,0 8 0 0,0
17.02.2019 06:00:00 8,8 7,2 - - 9 5 - - S 1013,4 10 0 0,0
17.02.2019 05:00:00 8,9 7,1 - - 21 11 - - S 1013,8 13 0 0,0
17.02.2019 04:00:00 9,1 7,3 - - 16 9 - - SSW 1014,6 12 0 0,0
17.02.2019 03:00:00 9,3 7,7 - - 16 9 - - SSW 1015,1 10 0 0,0
17.02.2019 02:00:00 9,7 7,8 - - 13 7 - - S 1015,5 10 0 0,0
17.02.2019 01:00:00 10,7 8,1 - - 13 7 - - S 1016,0 17 0 0,0
17.02.2019 00:00:00 10,0 8,1 - - 11 6 - - S 1016,7 10 - 0,0
16.02.2019 23:00:00 10,1 8,6 - - 13 7 - - S 1017,0 10 0 0,0
16.02.2019 22:00:00 10,3 8,3 - - 15 8 - - S 1017,4 10 0 0,0
16.02.2019 21:00:00 10,9 8,5 - - 13 7 - - S 1017,6 10 0 0,0
16.02.2019 20:00:00 10,9 8,0 - - 13 7 - - S 1017,6 24 0 0,0
16.02.2019 19:00:00 11,0 7,1 - - 11 6 - - S 1017,9 20 0 0,0
16.02.2019 18:00:00 10,2 5,8 - - 8 4 - - S 1017,5 21 0 0,0
16.02.2019 17:00:00 11,3 5,4 - - 5 3 - - S 1017,6 29 42 0,0
16.02.2019 16:00:00 12,7 6,0 - - 16 9 - - SSW 1017,9 10 60 0,0
16.02.2019 15:00:00 13,1 5,7 - - 16 9 - - SW 1018,3 10 60 0,0
16.02.2019 14:00:00 13,1 5,4 - - 18 10 - - SW 1018,7 30 60 0,0
16.02.2019 13:00:00 12,8 5,4 - - 24 13 46 25 SW 1019,3 30 60 0,0
16.02.2019 12:00:00 12,0 6,3 - - 22 12 - - SW 1019,1 16 60 0,0
16.02.2019 11:00:00 11,0 6,1 - - 26 14 - - SW 1019,0 10 60 0,0
16.02.2019 10:00:00 10,4 6,5 - - 18 10 - - SW 1019,1 10 60 0,0
16.02.2019 09:00:00 8,3 6,3 4,4 6,0 15 8 - - SSW 1019,1 10 54 0,0
16.02.2019 08:00:00 6,0 5,0 - - 11 6 - - SW 1018,5 6 0 0,0
16.02.2019 07:00:00 6,3 5,2 - - 15 8 - - SSW 1018,1 7 0 0,0
16.02.2019 06:00:00 6,6 5,0 - - 13 7 - - SSW 1018,1 8 0 0,0
16.02.2019 05:00:00 6,8 4,8 - - 13 7 - - SSW 1017,8 11 0 0,0
16.02.2019 04:00:00 6,4 4,1 - - 15 8 - - SW 1017,5 10 0 0,0
16.02.2019 03:00:00 6,3 3,8 - - 13 7 - - S 1017,3 13 0 0,0
16.02.2019 02:00:00 6,9 4,4 - - 11 6 - - S 1017,8 13 0 0,0
16.02.2019 01:00:00 6,8 3,9 - - 11 6 - - S 1018,3 10 0 0,0
16.02.2019 00:00:00 7,6 4,2 - - 13 7 - - SSW 1018,7 10 - 0,0
15.02.2019 23:00:00 7,6 4,3 - - 15 8 - - SSW 1018,9 10 0 0,0
15.02.2019 22:00:00 7,6 4,5 - - 13 7 - - SSW 1019,4 14 0 0,0
15.02.2019 21:00:00 8,3 4,7 - - 13 7 - - SSW 1020,0 10 0 0,0
15.02.2019 20:00:00 8,0 5,3 - - 9 5 - - S 1020,2 12 0 0,0
15.02.2019 19:00:00 7,8 5,5 - - 8 4 - - S 1020,8 13 0 0,0
15.02.2019 18:00:00 8,0 5,1 - - 5 3 - - SW 1021,2 10 0 0,0
15.02.2019 17:00:00 10,3 5,9 - - 11 6 - - S 1020,9 11 54 0,0
15.02.2019 16:00:00 11,7 6,1 - - 8 4 - - SSW 1021,6 10 60 0,0
15.02.2019 15:00:00 11,9 5,9 - - 15 8 - - S 1022,1 10 60 0,0
15.02.2019 14:00:00 11,7 5,9 - - 11 6 - - S 1022,8 10 60 0,0
15.02.2019 13:00:00 10,7 4,6 - - 16 9 - - SSW 1023,6 10 60 0,0
15.02.2019 12:00:00 8,7 4,2 - - 16 9 - - SSW 1024,2 11 60 0,0
15.02.2019 11:00:00 7,4 3,9 - - 15 8 - - SSW 1024,8 8 60 0,0
15.02.2019 10:00:00 5,6 2,6 - - 9 5 - - S 1025,5 7 60 0,0
15.02.2019 09:00:00 3,6 1,9 4,5 6,0 4 2 - - WSW 1026,0 7 60 0,0
15.02.2019 08:00:00 2,1 0,9 - - 8 4 - - S 1025,9 7 0 0,0
15.02.2019 07:00:00 2,0 0,8 - - 13 7 - - S 1026,0 8 0 0,0
15.02.2019 06:00:00 1,7 0,9 - - 9 5 - - SSW 1026,2 9 0 0,0
15.02.2019 05:00:00 0,9 0,4 - - 4 2 - - SSW 1026,5 6 0 0,0
15.02.2019 04:00:00 1,3 0,8 - - 2 1 - - SW 1026,9 5 0 0,0
15.02.2019 03:00:00 2,2 1,5 - - 8 4 - - S 1027,3 5 0 0,0
15.02.2019 02:00:00 3,4 2,3 - - 13 7 - - SSW 1027,5 7 0 0,0
15.02.2019 01:00:00 4,4 3,3 - - 11 6 - - SSW 1027,9 8 0 0,0
15.02.2019 00:00:00 3,4 1,9 - - 5 3 - - SSW 1028,3 9 - 0,0
14.02.2019 23:00:00 4,1 2,8 - - 5 3 - - SSW 1028,7 9 0 0,0
14.02.2019 22:00:00 4,7 2,3 - - 5 3 - - S 1028,7 7 0 0,0
14.02.2019 21:00:00 6,0 3,8 - - 9 5 - - SSW 1028,6 10 0 0,0
14.02.2019 20:00:00 6,2 4,5 - - 8 4 - - SSW 1028,8 10 0 0,0
14.02.2019 19:00:00 7,1 4,3 - - 8 4 - - SSW 1029,0 9 0 0,0
14.02.2019 18:00:00 8,5 5,2 - - 9 5 - - SSW 1029,0 12 0 0,0
14.02.2019 17:00:00 10,1 5,6 - - 11 6 - - S 1028,9 13 54 0,0
14.02.2019 16:00:00 11,2 5,4 - - 13 7 - - SSW 1029,0 17 60 0,0
14.02.2019 15:00:00 11,5 4,6 - - 15 8 - - SSW 1029,3 10 60 0,0
14.02.2019 14:00:00 10,8 3,8 - - 15 8 - - SSW 1029,7 20 60 0,0
14.02.2019 13:00:00 11,3 2,6 - - 16 9 - - SSW 1030,2 10 60 0,0
14.02.2019 12:00:00 11,4 3,1 - - 11 6 - - SSW 1030,8 10 60 0,0
14.02.2019 11:00:00 10,1 3,2 - - 8 4 - - SW 1030,7 24 60 0,0
14.02.2019 10:00:00 8,3 2,4 - - 9 5 - - WSW 1030,8 10 60 0,0
14.02.2019 09:00:00 5,3 3,2 4,7 5,9 4 2 - - SW 1030,9 10 60 0,0
14.02.2019 08:00:00 3,6 2,8 - - 13 7 - - SW 1030,6 7 0 0,0
14.02.2019 07:00:00 3,1 2,5 - - 5 3 - - W 1030,4 7 0 0,0
14.02.2019 06:00:00 3,6 2,8 - - 5 3 - - SSW 1029,9 6 0 0,0
14.02.2019 05:00:00 3,8 3,3 - - 5 3 - - S 1030,3 7 0 0,0
14.02.2019 04:00:00 4,0 3,3 - - 5 3 - - ESE 1030,0 8 0 0,0
14.02.2019 03:00:00 4,4 3,4 - - 11 6 - - SW 1029,5 9 0 0,0
14.02.2019 02:00:00 5,2 3,7 - - 11 6 - - SSW 1029,3 10 0 0,0
14.02.2019 01:00:00 6,3 4,2 - - 9 5 - - S 1029,2 10 0 0,0
14.02.2019 00:00:00 7,2 4,6 - - 13 7 - - S 1028,7 10 - 0,0
13.02.2019 23:00:00 7,4 4,6 - - 13 7 - - SSW 1028,6 18 0 0,0
13.02.2019 22:00:00 7,7 4,7 - - 11 6 - - SSW 1028,6 21 0 0,0
13.02.2019 21:00:00 8,4 4,8 - - 16 9 - - SW 1028,3 10 0 0,0
13.02.2019 20:00:00 8,8 5,1 - - 18 10 - - SW 1028,1 10 0 0,0
13.02.2019 19:00:00 9,1 5,5 - - 24 13 - - SSW 1027,8 20 0 0,0
13.02.2019 18:00:00 9,4 5,2 - - 16 9 - - SW 1028,0 30 0 0,0
13.02.2019 17:00:00 10,1 5,5 - - 13 7 - - SW 1028,1 10 0 0,0
13.02.2019 16:00:00 10,6 5,6 - - 18 10 - - SW 1027,8 28 0 0,0
13.02.2019 15:00:00 11,0 5,8 - - 21 11 - - SW 1028,1 25 0 0,0
13.02.2019 14:00:00 11,2 5,9 - - 26 14 - - SW 1028,2 27 30 0,0

tt = temperature
td = dewpoint
tt -20cm = temperature -20cm
tt -100cm = temperature -100cm
ff = wind speed
fx = gusts
dd = wind direction
ppp = reduced air pressure
vv = visibility
sd = sunshine duration
rr = precipitation

Next stations